Date String (YYYY-MM-DD hh:mm:ss) UTC,Instrument flags,absolute air pressure of the measurement (hPa),sample flow rate (lpm),inlet stack bypass flow (lpm),air temperature of the measurement (°C),ambient temperature measured by the external sensor (°C),aerosol sample conditioner tube jacket temperature (°C),OPC LED temperature (°C),internal box temperature (°C),relative humidity of the measurement (%),span deviation,mass concentration of particles derived from Lorenz-Mie calculation of OPC scattering (μg/m³),mass concentration of particles derived from Lorenz-Mie calculation of OPC scattering (μg/m³),mass concentration of particles derived from Lorenz-Mie calculation of OPC scattering (μg/m³)
DateTimeUTC,F1_M11,P_M11,Q1_M11,Q2_M11,T1_M11,T2_M11,T3_M11,T4_M11,T5_M11,U1_M11,ZSPAN_M11,X0_M11,X2_M11,X1_M11
2024-01-20 02:00:00,SystemResetWarning,0833.2,5.00,000.00,019.9,019.2,000.0,028.3,021.3,12.8,0000.0,0014.16,0007.94,0007.05
2024-01-20 02:01:00,SystemResetWarning,0833.1,5.00,000.00,019.9,019.2,000.0,028.3,021.2,12.8,0000.0,0014.34,0007.95,0007.07
2024-01-20 02:02:00,SystemResetWarning,0833.2,5.00,000.00,019.9,019.2,000.0,028.3,021.2,12.8,0000.0,0014.72,0008.01,0007.09
2024-01-20 02:03:00,SystemResetWarning,0833.1,5.00,000.00,019.9,019.2,000.0,028.3,021.2,12.8,0000.1,0014.16,0007.97,0007.09
2024-01-20 02:04:00,SystemResetWarning,0833.0,5.00,000.00,019.9,019.1,000.0,028.3,021.2,12.7,0003.5,0014.04,0007.95,0007.11
2024-01-20 02:05:00,SystemResetWarning,0833.0,5.01,000.00,019.9,019.1,000.0,028.3,021.2,12.7,0003.5,0013.71,0007.95,0007.14
2024-01-20 02:06:00,SystemResetWarning,0832.9,5.00,000.00,019.9,019.1,000.0,028.3,021.2,12.7,0003.2,0013.90,0008.01,0007.18
2024-01-20 02:07:00,SystemResetWarning,0832.9,5.01,000.00,019.9,019.1,000.0,028.3,021.2,12.7,0002.5,0014.09,0008.05,0007.22
2024-01-20 02:08:00,SystemResetWarning,0833.0,5.01,000.00,019.9,019.1,000.0,028.3,021.2,12.7,0002.3,0014.53,0008.11,0007.27
2024-01-20 02:09:00,SystemResetWarning,0833.4,4.99,000.00,019.9,019.1,000.0,028.3,021.2,12.7,0002.4,0014.62,0008.14,0007.30
2024-01-20 02:10:00,SystemResetWarning,0833.3,4.99,000.00,019.9,019.1,000.0,028.3,021.2,12.7,0002.6,0014.29,0008.14,0007.34
2024-01-20 02:11:00,SystemResetWarning,0833.0,5.00,000.00,019.9,019.1,000.0,028.3,021.1,12.7,0001.9,0013.65,0008.20,0007.39
2024-01-20 02:12:00,SystemResetWarning,0833.0,5.00,000.00,019.9,019.1,000.0,028.3,021.1,12.7,0001.4,0013.45,0008.24,0007.43
2024-01-20 02:13:00,SystemResetWarning,0833.1,5.00,000.00,019.9,019.1,000.0,028.3,021.1,12.7,0001.3,0013.22,0008.29,0007.49
2024-01-20 02:14:00,SystemResetWarning,0833.4,5.00,000.00,019.9,019.0,000.0,028.2,021.1,12.7,0002.0,0013.55,0008.41,0007.56
2024-01-20 02:15:00,SystemResetWarning,0833.4,5.01,000.00,019.8,019.0,000.0,028.2,021.1,12.7,0002.3,0013.38,0008.52,0007.63
2024-01-20 02:16:00,SystemResetWarning,0833.1,5.01,000.00,019.8,019.0,000.0,028.2,021.1,12.7,0002.7,0014.02,0008.61,0007.69
2024-01-20 02:17:00,SystemResetWarning,0833.1,5.01,000.00,019.8,019.0,000.0,028.2,021.1,12.7,0003.1,0013.84,0008.63,0007.72
2024-01-20 02:18:00,SystemResetWarning,0833.2,5.00,000.00,019.8,019.0,000.0,028.2,021.1,12.7,0003.2,0013.67,0008.68,0007.76
2024-01-20 02:19:00,SystemResetWarning,0833.3,4.99,000.00,019.8,019.0,000.0,028.2,021.1,12.7,0004.0,0013.47,0008.74,0007.80
2024-01-20 02:20:00,SystemResetWarning,0833.1,4.99,000.00,019.8,019.0,000.0,028.2,021.1,12.7,0004.3,0013.59,0008.86,0007.89
2024-01-20 02:21:00,SystemResetWarning,0833.0,4.99,000.00,019.8,019.0,000.0,028.2,021.1,12.7,0004.2,0014.17,0008.98,0007.99
2024-01-20 02:22:00,SystemResetWarning,0833.1,5.00,000.00,019.8,019.0,000.0,028.2,021.1,12.7,0004.3,0015.35,0009.08,0008.08
2024-01-20 02:23:00,SystemResetWarning,0833.0,5.01,000.00,019.8,019.0,000.0,028.2,021.1,12.7,0004.3,0015.97,0009.22,0008.19
2024-01-20 02:24:00,SystemResetWarning,0833.0,5.00,000.00,019.8,019.0,000.0,028.2,021.1,12.7,0004.4,0016.22,0009.34,0008.27
2024-01-20 02:25:00,SystemResetWarning,0833.0,5.00,000.00,019.8,019.0,000.0,028.2,021.1,12.7,0004.5,0016.28,0009.38,0008.33
2024-01-20 02:26:00,SystemResetWarning,0833.2,5.00,000.00,019.8,019.0,000.0,028.2,021.1,12.7,0004.0,0016.31,0009.38,0008.35
2024-01-20 02:27:00,SystemResetWarning,0833.0,5.01,000.00,019.8,019.0,000.0,028.2,021.1,12.7,0003.8,0015.86,0009.41,0008.38
2024-01-20 02:28:00,SystemResetWarning,0833.0,5.01,000.00,019.8,018.9,000.0,028.2,021.1,12.7,0003.6,0015.73,0009.41,0008.39
2024-01-20 02:29:00,SystemResetWarning,0833.0,5.00,000.00,019.8,018.9,000.0,028.2,021.0,12.7,0002.6,0016.41,0009.39,0008.39
2024-01-20 02:30:00,SystemResetWarning,0833.0,5.00,000.00,019.8,018.9,000.0,028.2,021.0,12.7,0002.3,0016.70,0009.42,0008.36
2024-01-20 02:31:00,SystemResetWarning,0833.1,4.99,000.00,019.7,018.9,000.0,028.1,021.0,12.7,0002.0,0016.75,0009.33,0008.27
2024-01-20 02:32:00,SystemResetWarning,0833.4,5.00,000.00,019.7,018.9,000.0,028.1,021.0,12.7,0002.2,0016.63,0009.21,0008.17
2024-01-20 02:33:00,SystemResetWarning,0833.0,4.99,000.00,019.7,018.9,000.0,028.1,021.0,12.7,0001.8,0016.48,0009.02,0008.00
2024-01-20 02:34:00,SystemResetWarning,0833.0,5.00,000.00,019.7,018.9,000.0,028.1,021.0,12.7,0001.7,0015.52,0008.84,0007.83
2024-01-20 02:35:00,SystemResetWarning,0833.0,5.00,000.00,019.7,018.9,000.0,028.1,021.0,12.7,0001.4,0015.23,0008.65,0007.66
2024-01-20 02:36:00,SystemResetWarning,0833.0,5.01,000.00,019.7,018.9,000.0,028.1,021.0,12.7,0000.7,0015.71,0008.52,0007.54
2024-01-20 02:37:00,SystemResetWarning,0832.9,5.01,000.00,019.7,018.8,000.0,028.1,021.0,12.7,0000.5,0016.44,0008.45,0007.46
2024-01-20 02:38:00,SystemResetWarning,0832.9,5.00,000.00,019.7,018.8,000.0,028.1,021.0,12.7,0000.4,0017.41,0008.39,0007.40
2024-01-20 02:39:00,SystemResetWarning,0832.9,4.99,000.00,019.7,018.8,000.0,028.1,021.0,12.6,0000.8,0017.52,0008.34,0007.34
2024-01-20 02:40:00,SystemResetWarning,0833.3,4.99,000.00,019.7,018.8,000.0,028.1,021.0,12.6,0001.3,0017.24,0008.30,0007.29
2024-01-20 02:41:00,SystemResetWarning,0833.1,5.00,000.00,019.7,018.8,000.0,028.1,020.9,12.6,0001.4,0017.21,0008.18,0007.23
2024-01-20 02:42:00,SystemResetWarning,0832.9,5.01,000.00,019.7,018.8,000.0,028.1,020.9,12.6,0001.4,0017.19,0008.17,0007.20
2024-01-20 02:43:00,SystemResetWarning,0833.3,5.00,000.00,019.7,018.8,000.0,028.1,020.9,12.6,0001.1,0016.67,0008.11,0007.15
2024-01-20 02:44:00,SystemResetWarning,0832.9,4.99,000.00,019.6,018.8,000.0,028.1,020.9,12.7,0001.1,0015.86,0008.07,0007.12
2024-01-20 02:45:00,SystemResetWarning,0832.9,5.00,000.00,019.6,018.8,000.0,028.0,020.9,12.6,0001.5,0015.75,0008.00,0007.06
2024-01-20 02:46:00,SystemResetWarning,0833.4,4.99,000.00,019.6,018.8,000.0,028.0,020.9,12.6,0001.2,0015.81,0007.93,0006.99
2024-01-20 02:47:00,SystemResetWarning,0833.1,5.02,000.00,019.6,018.8,000.0,028.0,020.9,12.6,0001.5,0015.22,0007.84,0006.93
2024-01-20 02:48:00,SystemResetWarning,0833.4,5.01,000.00,019.6,018.8,000.0,028.0,020.9,12.6,0001.3,0014.11,0007.74,0006.83
2024-01-20 02:49:00,SystemResetWarning,0833.4,5.00,000.00,019.6,018.8,000.0,028.0,020.9,12.6,0001.3,0012.89,0007.62,0006.72
2024-01-20 02:50:00,SystemResetWarning,0832.9,5.00,000.00,019.6,018.7,000.0,028.0,020.9,12.6,0001.6,0012.66,0007.49,0006.61
2024-01-20 02:51:00,SystemResetWarning,0833.0,4.99,000.00,019.6,018.7,000.0,028.0,020.9,12.6,0001.6,0012.22,0007.35,0006.52
2024-01-20 02:52:00,SystemResetWarning,0833.0,5.00,000.00,019.6,018.7,000.0,028.0,020.8,12.7,0001.6,0011.63,0007.25,0006.45
2024-01-20 02:53:00,SystemResetWarning,0833.2,5.00,000.00,019.6,018.7,000.0,028.0,020.8,12.7,0001.8,0012.77,0007.16,0006.39
2024-01-20 02:54:00,SystemResetWarning,0833.5,5.00,000.00,019.6,018.7,000.0,028.0,020.8,12.7,0002.1,0013.20,0007.14,0006.36
2024-01-20 02:55:00,SystemResetWarning,0833.3,5.00,000.00,019.6,018.7,000.0,028.0,020.8,12.7,0002.0,0013.22,0007.12,0006.35
2024-01-20 02:56:00,SystemResetWarning,0833.1,5.00,000.00,019.6,018.7,000.0,028.0,020.8,12.7,0000.7,0013.04,0007.10,0006.35
2024-01-20 02:57:00,SystemResetWarning,0833.0,5.00,000.00,019.5,018.6,000.0,028.0,020.8,12.7,0000.6,0012.98,0007.16,0006.40
2024-01-20 02:58:00,SystemResetWarning,0833.1,5.00,000.00,019.5,018.6,000.0,027.9,020.8,12.7,0000.7,0013.01,0007.19,0006.43
2024-01-20 02:59:00,SystemResetWarning,0833.4,5.00,000.00,019.5,018.6,000.0,027.9,020.8,12.7,0001.7,0013.74,0007.20,0006.47
